Location: Tel Aviv
(32.0670°N, 34.7670°E)
Time: 13:38:36
(UTC+03:00)

Explorer 11/Cluster Stage 4 - Pass Details

Date: 14 September 2024
Orbit: 464 x 1208 km, 28.8° (Epoch: 05 October)

Event Time Altitude Azimuth Distance (km) Brightness Sun altitude
Rises 12:22:10 0° 275° (W) 4,094 10.2 60.9°
Reaches altitude 10° 12:25:15 10° 268° (W) 3,144 9.8 61.0°
Maximum altitude 12:32:33 40° 202° (SSW) 1,668 9.7 61.1°
Drops below altitude 10° 12:39:23 10° 136° (SE) 2,939 10.0 61.1°
Sets 12:42:10 0° 129° (SE) 3,803 10.3 61.0°
